sat.trackr.live / text

‹ back to catalog

STARLINK-34655

NORAD 65027 · 2025-161N

PAYLOAD ACTIVE UNKNOWN

§ Identity

Operator
Country
US
Launch date
2025-07-30
Launch site
AFWTR
Launch vehicle
Mass (kg)
RCS (m²)

Purposes: comms

External: N2YO · Heavens-Above · Gunter

§ Orbital elements

Epoch: 2026-05-25T03:57:34.324704Z

Period
94.11 min
Inclination
53.1603°
Eccentricity
0.0001245
Mean motion
15.30177049 rev/d
Perigee alt
474.4 km
Apogee alt
476.1 km
Semi-major
6,853.4 km
B*
-5.2276e-4
RAAN
299.3276°
Arg perigee
135.9714°
Mean anomaly
224.1386°
Rev number
4,703

§ Raw data

STARLINK-346551 65027U 25161N   26145.16498061 -.00015798  00000+0 -52276-3 0  99942 65027  53.1603 299.3276 0001245 135.9714 224.1386 15.30177049 47037

JSON: /api/v1/satellites/65027 · /tle

For live sub-satellite position, see the globe view (requires WebGL).

§ Visibility from observer

Set your observer location to see the next 7 days of passes ≥ 10°. The values pass through the URL so the page stays shareable.

No JS? Fill the form by hand. The geolocation button needs JavaScript.